QPF
0.00 0.00 0.00 0.00 0.00 0.00 0.00 0.00 0.00 0.00 0.00 0.00 0.00 0.00 0.00 0.00 0.00 0.00 0.00 0.00 0.00 0.00 0.00 0.00 0.01 0.01 0.02 0.02 0.02 0.02 0.02 0.03 0.03 0.03 0.03 0.03 0.04 0.04
0.00 0.00 0.00 0.00 0.00 0.00 0.00 0.00 0.00 0.00 0.00 0.00 0.00 0.00 0.00 0.00 0.00 0.00 0.00 0.00 0.00 0.00 0.00 0.00 0.01 0.01 0.02 0.02 0.02 0.03 0.03 0.03 0.04 0.04 0.04 0.05 0.05 0.06
0.00 0.00 0.00 0.00 0.00 0.00 0.00 0.00 0.00 0.00 0.00 0.00 0.00 0.00 0.00 0.00 0.00 0.00 0.00 0.00 0.00 0.00 0.00 0.01 0.01 0.02 0.02 0.02 0.03 0.03 0.03 0.04 0.04 0.05 0.05 0.06 0.06 0.06
0.00 0.00 0.00 0.00 0.00 0.00 0.00 0.00 0.00 0.00 0.00 0.00 0.00 0.00 0.00 0.00 0.00 0.00 0.00 0.00 0.00 0.00 0.01 0.01 0.01 0.02 0.02 0.02 0.03 0.03 0.04 0.04 0.04 0.04 0.04 0.04 0.05 0.05
0.00 0.00 0.00 0.00 0.00 0.00 0.00 0.00 0.00 0.00 0.00 0.00 0.00 0.00 0.00 0.00 0.00 0.00 0.00 0.00 0.00 0.00 0.00 0.00 0.01 0.01 0.02 0.02 0.03 0.03 0.03 0.03 0.03 0.03 0.03 0.03 0.03 0.04
0.00 0.00 0.00 0.00 0.00 0.00 0.00 0.00 0.00 0.00 0.00 0.01 0.01 0.01 0.01 0.00 0.01 0.01 0.01 0.01 0.01 0.00 0.00 0.01 0.01 0.01 0.01 0.01 0.02 0.02 0.02 0.02 0.03 0.03 0.04 0.04 0.03 0.03
0.00 0.00 0.00 0.00 0.00 0.00 0.00 0.00 0.00 0.01 0.01 0.01 0.01 0.01 0.01 0.01 0.01 0.02 0.02 0.01 0.01 0.01 0.01 0.00 0.00 0.00 0.00 0.01 0.01 0.01 0.02 0.03 0.03 0.04 0.04 0.04 0.04 0.04
0.00 0.00 0.00 0.00 0.00 0.00 0.00 0.00 0.01 0.01 0.02 0.02 0.02 0.02 0.01 0.01 0.02 0.02 0.03 0.03 0.02 0.01 0.01 0.01 0.01 0.01 0.00 0.00 0.01 0.02 0.03 0.04 0.05 0.05 0.05 0.05 0.05 0.05
0.00 0.00 0.00 0.00 0.00 0.00 0.00 0.00 0.00 0.01 0.02 0.02 0.03 0.02 0.02 0.02 0.02 0.03 0.03 0.04 0.03 0.02 0.02 0.02 0.01 0.01 0.01 0.01 0.02 0.03 0.04 0.04 0.04 0.04 0.04 0.04 0.04 0.04
0.00 0.00 0.00 0.00 0.00 0.00 0.00 0.00 0.01 0.01 0.01 0.02 0.02 0.02 0.02 0.02 0.04 0.05 0.06 0.06 0.03 0.01 0.02 0.03 0.01 0.01 0.01 0.01 0.01 0.02 0.03 0.03 0.03 0.03 0.04 0.04 0.03 0.03
0.00 0.00 0.00 0.00 0.00 0.01 0.01 0.01 0.01 0.01 0.01 0.02 0.03 0.03 0.04 0.05 0.05 0.05 0.06 0.06 0.04 0.01 0.01 0.02 0.01 0.01 0.01 0.01 0.01 0.01 0.02 0.02 0.03 0.03 0.03 0.03 0.03 0.02
0.00 0.00 0.00 0.00 0.01 0.01 0.02 0.02 0.02 0.01 0.01 0.01 0.02 0.02 0.02 0.01 0.02 0.02 0.02 0.04 0.03 0.02 0.01 0.02 0.02 0.03 0.03 0.01 0.01 0.01 0.01 0.01 0.01 0.01 0.02 0.02 0.02 0.02
0.00 0.00 0.00 0.01 0.01 0.01 0.02 0.02 0.02 0.03 0.03 0.03 0.03 0.02 0.01 0.01 0.01 0.01 0.01 0.02 0.04 0.03 0.01 0.03 0.03 0.02 0.04 0.02 0.01 0.00 0.01 0.00 0.01 0.01 0.01 0.01 0.02 0.01
0.00 0.00 0.00 0.01 0.01 0.02 0.02 0.02 0.03 0.03 0.02 0.02 0.02 0.01 0.01 0.01 0.01 0.01 0.01 0.01 0.01 0.02 0.01 0.02 0.05 0.04 0.04 0.03 0.01 0.01 0.01 0.01 0.01 0.01 0.01 0.01 0.01 0.02
0.01 0.01 0.01 0.02 0.02 0.01 0.01 0.02 0.02 0.01 0.01 0.01 0.01 0.01 0.01 0.01 0.01 0.01 0.01 0.01 0.00 0.00 0.00 0.01 0.03 0.04 0.05 0.04 0.02 0.01 0.01 0.01 0.01 0.01 0.01 0.01 0.01 0.01
0.01 0.01 0.02 0.02 0.01 0.01 0.01 0.01 0.01 0.01 0.01 0.01 0.01 0.01 0.01 0.01 0.01 0.01 0.01 0.01 0.02 0.01 0.01 0.01 0.02 0.03 0.04 0.03 0.02 0.02 0.01 0.02 0.01 0.01 0.01 0.01 0.00 0.00
0.02 0.02 0.02 0.02 0.02 0.02 0.01 0.01 0.01 0.01 0.01 0.01 0.01 0.01 0.01 0.01 0.01 0.01 0.01 0.01 0.02 0.01 0.01 0.01 0.01 0.01 0.01 0.02 0.02 0.02 0.02 0.02 0.01 0.01 0.01 0.01 0.01 0.00
0.02 0.03 0.02 0.02 0.02 0.02 0.02 0.01 0.01 0.01 0.01 0.01 0.01 0.01 0.01 0.01 0.01 0.01 0.01 0.02 0.02 0.01 0.01 0.01 0.01 0.01 0.01 0.01 0.01 0.02 0.01 0.02 0.01 0.01 0.01 0.01 0.01 0.00
0.02 0.01 0.01 0.01 0.01 0.01 0.01 0.01 0.01 0.01 0.01 0.01 0.01 0.01 0.02 0.02 0.01 0.02 0.01 0.02 0.02 0.01 0.01 0.01 0.02 0.02 0.02 0.02 0.02 0.01 0.01 0.01 0.02 0.01 0.01 0.01 0.01 0.01
0.01 0.01 0.01 0.01 0.01 0.01 0.01 0.01 0.01 0.01 0.01 0.01 0.01 0.02 0.02 0.02 0.02 0.02 0.02 0.02 0.02 0.01 0.01 0.01 0.02 0.02 0.02 0.02 0.02 0.01 0.01 0.01 0.02 0.02 0.01 0.00 0.00 0.00
0.01 0.01 0.01 0.01 0.01 0.01 0.01 0.01 0.01 0.01 0.01 0.01 0.01 0.01 0.01 0.01 0.02 0.01 0.01 0.01 0.02 0.02 0.02 0.01 0.01 0.01 0.01 0.01 0.01 0.01 0.01 0.01 0.01 0.01 0.01 0.01 0.01 0.01
0.01 0.01 0.01 0.01 0.01 0.01 0.02 0.02 0.02 0.01 0.01 0.01 0.01 0.01 0.01 0.01 0.02 0.02 0.01 0.01 0.01 0.01 0.01 0.01 0.01 0.01 0.01 0.02 0.02 0.01 0.01 0.01 0.01 0.00 0.00 0.01 0.01 0.01
0.01 0.01 0.01 0.01 0.01 0.02 0.02 0.02 0.01 0.01 0.01 0.01 0.01 0.01 0.01 0.02 0.02 0.01 0.01 0.01 0.01 0.01 0.01 0.01 0.01 0.01 0.01 0.01 0.01 0.01 0.01 0.01 0.01 0.01 0.00 0.00 0.00 0.00
MSLP
1023.29 1023.62 1023.91 1024.14 1024.28 1024.30 1024.21 1024.01 1023.72 1023.35 1022.94 1022.50 1022.06 1021.64 1021.25 1020.88 1020.54 1020.22 1019.91 1019.58 1019.24 1018.86 1018.43 1017.95 1017.42 1016.84 1016.22 1015.58 1014.95 1014.34 1013.79 1013.29 1012.85 1012.46 1012.11 1011.78 1011.44 1011.08
1023.00 1023.29 1023.53 1023.72 1023.83 1023.84 1023.76 1023.59 1023.34 1023.03 1022.67 1022.27 1021.87 1021.47 1021.08 1020.70 1020.34 1019.98 1019.63 1019.26 1018.87 1018.45 1017.98 1017.46 1016.88 1016.25 1015.58 1014.90 1014.23 1013.59 1013.01 1012.50 1012.06 1011.68 1011.35 1011.04 1010.73 1010.40
1022.62 1022.85 1023.04 1023.17 1023.24 1023.24 1023.17 1023.03 1022.83 1022.58 1022.29 1021.96 1021.62 1021.26 1020.89 1020.52 1020.14 1019.75 1019.35 1018.94 1018.50 1018.02 1017.49 1016.91 1016.27 1015.59 1014.87 1014.15 1013.43 1012.77 1012.16 1011.64 1011.20 1010.83 1010.52 1010.24 1009.96 1009.66
1022.17 1022.35 1022.48 1022.56 1022.60 1022.58 1022.51 1022.40 1022.25 1022.06 1021.84 1021.59 1021.31 1021.00 1020.67 1020.31 1019.93 1019.52 1019.09 1018.63 1018.13 1017.59 1017.00 1016.35 1015.66 1014.92 1014.16 1013.39 1012.64 1011.95 1011.32 1010.79 1010.34 1009.98 1009.68 1009.42 1009.17 1008.90
1021.69 1021.82 1021.91 1021.96 1021.96 1021.92 1021.86 1021.76 1021.65 1021.51 1021.35 1021.17 1020.95 1020.70 1020.41 1020.07 1019.70 1019.28 1018.82 1018.32 1017.77 1017.18 1016.53 1015.84 1015.09 1014.31 1013.50 1012.70 1011.92 1011.20 1010.56 1010.01 1009.56 1009.19 1008.90 1008.65 1008.42 1008.19
1021.20 1021.31 1021.37 1021.39 1021.37 1021.32 1021.24 1021.16 1021.06 1020.96 1020.84 1020.71 1020.54 1020.33 1020.08 1019.77 1019.41 1018.99 1018.52 1018.00 1017.43 1016.80 1016.12 1015.39 1014.61 1013.80 1012.96 1012.13 1011.33 1010.59 1009.93 1009.37 1008.90 1008.53 1008.23 1007.99 1007.78 1007.57
1020.73 1020.84 1020.89 1020.89 1020.85 1020.78 1020.69 1020.60 1020.51 1020.42 1020.32 1020.20 1020.07 1019.89 1019.67 1019.39 1019.05 1018.65 1018.19 1017.67 1017.10 1016.46 1015.77 1015.03 1014.24 1013.41 1012.56 1011.72 1010.91 1010.15 1009.47 1008.89 1008.40 1008.02 1007.72 1007.48 1007.27 1007.08
1020.29 1020.40 1020.45 1020.44 1020.39 1020.30 1020.20 1020.09 1019.98 1019.87 1019.77 1019.66 1019.54 1019.38 1019.18 1018.92 1018.61 1018.24 1017.81 1017.32 1016.77 1016.15 1015.48 1014.75 1013.97 1013.15 1012.31 1011.46 1010.64 1009.87 1009.18 1008.57 1008.07 1007.67 1007.35 1007.11 1006.91 1006.74
1019.86 1019.98 1020.03 1020.02 1019.95 1019.85 1019.72 1019.59 1019.45 1019.33 1019.21 1019.09 1018.96 1018.80 1018.62 1018.39 1018.11 1017.78 1017.39 1016.95 1016.44 1015.87 1015.23 1014.54 1013.79 1012.99 1012.17 1011.33 1010.51 1009.74 1009.03 1008.41 1007.89 1007.47 1007.14 1006.89 1006.69 1006.52
1019.41 1019.53 1019.58 1019.57 1019.50 1019.38 1019.23 1019.07 1018.91 1018.76 1018.62 1018.48 1018.35 1018.20 1018.03 1017.82 1017.58 1017.29 1016.95 1016.56 1016.11 1015.60 1015.02 1014.38 1013.68 1012.92 1012.13 1011.32 1010.51 1009.73 1009.02 1008.39 1007.85 1007.41 1007.06 1006.80 1006.60 1006.43
1018.92 1019.04 1019.09 1019.07 1018.99 1018.86 1018.71 1018.53 1018.36 1018.19 1018.03 1017.88 1017.74 1017.60 1017.44 1017.26 1017.05 1016.81 1016.52 1016.18 1015.79 1015.34 1014.83 1014.25 1013.61 1012.91 1012.15 1011.37 1010.59 1009.82 1009.11 1008.47 1007.91 1007.46 1007.10 1006.82 1006.61 1006.44
1018.37 1018.48 1018.52 1018.50 1018.42 1018.29 1018.14 1017.96 1017.79 1017.62 1017.46 1017.32 1017.18 1017.05 1016.91 1016.75 1016.57 1016.36 1016.11 1015.83 1015.50 1015.11 1014.66 1014.15 1013.57 1012.92 1012.22 1011.49 1010.73 1009.99 1009.28 1008.64 1008.08 1007.61 1007.24 1006.95 1006.72 1006.55
1017.77 1017.86 1017.89 1017.87 1017.80 1017.68 1017.54 1017.39 1017.23 1017.08 1016.94 1016.82 1016.70 1016.58 1016.45 1016.31 1016.15 1015.97 1015.75 1015.51 1015.22 1014.88 1014.50 1014.05 1013.53 1012.96 1012.32 1011.63 1010.93 1010.21 1009.53 1008.90 1008.33 1007.86 1007.47 1007.17 1006.93 1006.73
1017.13 1017.21 1017.24 1017.22 1017.16 1017.06 1016.95 1016.83 1016.71 1016.60 1016.49 1016.40 1016.30 1016.20 1016.09 1015.96 1015.81 1015.64 1015.44 1015.22 1014.96 1014.67 1014.33 1013.95 1013.50 1012.99 1012.43 1011.81 1011.16 1010.49 1009.84 1009.22 1008.67 1008.18 1007.79 1007.46 1007.20 1006.97
1016.50 1016.57 1016.59 1016.58 1016.54 1016.48 1016.40 1016.33 1016.25 1016.19 1016.12 1016.06 1015.99 1015.91 1015.81 1015.68 1015.53 1015.36 1015.16 1014.95 1014.71 1014.45 1014.16 1013.83 1013.46 1013.02 1012.53 1011.99 1011.40 1010.79 1010.18 1009.59 1009.05 1008.57 1008.15 1007.81 1007.52 1007.27
1015.91 1015.97 1016.00 1016.01 1015.99 1015.95 1015.92 1015.88 1015.86 1015.84 1015.82 1015.80 1015.75 1015.69 1015.59 1015.46 1015.29 1015.11 1014.90 1014.68 1014.45 1014.22 1013.97 1013.69 1013.38 1013.03 1012.62 1012.16 1011.64 1011.10 1010.53 1009.97 1009.44 1008.96 1008.54 1008.17 1007.86 1007.57
1015.38 1015.45 1015.48 1015.50 1015.49 1015.49 1015.48 1015.49 1015.51 1015.53 1015.55 1015.56 1015.54 1015.48 1015.38 1015.24 1015.06 1014.85 1014.63 1014.40 1014.18 1013.96 1013.75 1013.52 1013.28 1013.00 1012.67 1012.29 1011.85 1011.36 1010.85 1010.32 1009.81 1009.33 1008.89 1008.50 1008.16 1007.83
1014.91 1014.98 1015.02 1015.04 1015.05 1015.06 1015.08 1015.11 1015.16 1015.22 1015.27 1015.30 1015.29 1015.24 1015.14 1014.99 1014.80 1014.58 1014.34 1014.10 1013.88 1013.68 1013.50 1013.32 1013.13 1012.92 1012.67 1012.36 1011.99 1011.57 1011.10 1010.60 1010.10 1009.62 1009.17 1008.76 1008.39 1008.03
1014.47 1014.53 1014.57 1014.59 1014.60 1014.62 1014.66 1014.71 1014.78 1014.85 1014.93 1014.98 1014.99 1014.95 1014.85 1014.70 1014.50 1014.27 1014.02 1013.79 1013.57 1013.39 1013.23 1013.09 1012.95 1012.80 1012.61 1012.37 1012.06 1011.69 1011.26 1010.79 1010.31 1009.82 1009.36 1008.93 1008.53 1008.15
1014.01 1014.07 1014.10 1014.11 1014.12 1014.14 1014.17 1014.23 1014.32 1014.41 1014.50 1014.57 1014.60 1014.57 1014.49 1014.35 1014.15 1013.93 1013.69 1013.46 1013.26 1013.09 1012.95 1012.85 1012.76 1012.65 1012.51 1012.32 1012.06 1011.73 1011.34 1010.89 1010.42 1009.94 1009.47 1009.02 1008.60 1008.20
1013.50 1013.54 1013.56 1013.56 1013.56 1013.58 1013.61 1013.68 1013.77 1013.88 1013.99 1014.08 1014.13 1014.13 1014.07 1013.95 1013.77 1013.57 1013.35 1013.14 1012.95 1012.80 1012.69 1012.62 1012.55 1012.48 1012.38 1012.23 1012.01 1011.71 1011.35 1010.93 1010.47 1009.99 1009.53 1009.08 1008.65 1008.24
1012.92 1012.95 1012.95 1012.94 1012.93 1012.94 1012.98 1013.05 1013.15 1013.28 1013.41 1013.53 1013.61 1013.64 1013.61 1013.52 1013.38 1013.20 1013.01 1012.83 1012.66 1012.54 1012.45 1012.39 1012.35 1012.31 1012.24 1012.11 1011.92 1011.66 1011.33 1010.93 1010.50 1010.05 1009.59 1009.15 1008.73 1008.32
1012.29 1012.30 1012.28 1012.26 1012.25 1012.26 1012.30 1012.39 1012.50 1012.65 1012.80 1012.94 1013.05 1013.12 1013.13 1013.08 1012.98 1012.84 1012.68 1012.53 1012.39 1012.29 1012.22 1012.18 1012.16 1012.13 1012.08 1011.99 1011.83 1011.60 1011.31 1010.95 1010.55 1010.13 1009.71 1009.29 1008.89 1008.50
Thickness
5500 5494 5489 5484 5479 5474 5469 5463 5456 5456 5461 5460 5457 5455 5450 5446 5441 5437 5433 5429 5425 5422 5419 5416 5415 5413 5412 5412 5412 5412 5414 5415 5418 5421 5425 5429 5434 5438
5492 5486 5481 5476 5471 5466 5461 5455 5449 5445 5448 5449 5444 5440 5435 5430 5424 5419 5414 5409 5405 5401 5397 5395 5392 5390 5389 5388 5388 5388 5390 5392 5394 5397 5401 5406 5410 5415
5484 5478 5473 5468 5462 5457 5452 5446 5440 5435 5435 5440 5431 5425 5419 5412 5407 5400 5394 5389 5384 5379 5375 5372 5369 5367 5365 5364 5364 5364 5365 5367 5369 5372 5376 5381 5385 5392
5476 5470 5464 5459 5453 5448 5442 5436 5431 5425 5420 5421 5418 5409 5401 5394 5388 5382 5375 5369 5363 5358 5354 5351 5348 5345 5343 5342 5341 5342 5343 5344 5346 5349 5353 5358 5363 5366
5467 5461 5455 5449 5443 5437 5431 5425 5419 5414 5406 5402 5401 5393 5384 5376 5369 5364 5357 5350 5343 5338 5335 5332 5329 5326 5324 5323 5323 5323 5323 5324 5326 5328 5331 5335 5339 5345
5458 5452 5446 5439 5433 5427 5421 5414 5407 5399 5391 5384 5381 5376 5368 5359 5349 5343 5340 5334 5328 5322 5318 5314 5311 5309 5307 5306 5306 5306 5306 5307 5308 5311 5314 5317 5321 5326
5449 5443 5437 5431 5425 5418 5411 5402 5393 5384 5375 5367 5363 5357 5351 5340 5331 5325 5321 5319 5315 5307 5303 5301 5296 5295 5292 5290 5291 5291 5292 5294 5296 5298 5301 5304 5308 5312
5440 5434 5428 5422 5415 5409 5401 5393 5383 5372 5361 5353 5347 5340 5334 5324 5317 5311 5305 5302 5302 5296 5288 5289 5283 5282 5280 5280 5281 5282 5283 5285 5287 5289 5292 5295 5299 5303
5431 5424 5419 5412 5404 5396 5389 5382 5372 5360 5349 5340 5332 5326 5318 5313 5305 5300 5293 5288 5286 5282 5276 5278 5274 5272 5272 5272 5273 5276 5277 5279 5281 5283 5286 5289 5292 5296
5420 5413 5405 5399 5391 5382 5375 5368 5358 5348 5337 5327 5319 5314 5307 5301 5293 5288 5283 5279 5278 5272 5264 5264 5266 5264 5266 5266 5267 5270 5272 5274 5276 5279 5281 5284 5287 5290
5410 5402 5393 5386 5380 5371 5363 5354 5346 5337 5327 5318 5311 5304 5299 5293 5286 5279 5273 5268 5267 5265 5258 5254 5257 5258 5260 5261 5263 5265 5267 5269 5272 5275 5278 5281 5283 5286
5398 5390 5381 5373 5366 5357 5347 5338 5331 5324 5316 5309 5301 5294 5288 5282 5276 5269 5263 5258 5256 5255 5253 5249 5249 5248 5253 5257 5257 5258 5261 5264 5267 5271 5274 5277 5280 5283
5385 5376 5368 5359 5351 5343 5334 5325 5317 5311 5305 5297 5291 5284 5278 5273 5268 5263 5257 5252 5249 5248 5246 5243 5243 5242 5242 5248 5252 5254 5257 5260 5263 5266 5270 5273 5277 5280
5372 5364 5355 5347 5339 5330 5321 5313 5306 5299 5291 5283 5278 5272 5268 5264 5260 5257 5253 5249 5246 5243 5242 5239 5238 5238 5239 5242 5247 5251 5253 5256 5260 5263 5267 5270 5273 5276
5359 5351 5343 5335 5326 5318 5309 5302 5294 5285 5277 5271 5266 5262 5259 5256 5253 5251 5248 5246 5243 5241 5240 5238 5237 5237 5237 5240 5243 5246 5249 5254 5258 5260 5263 5266 5269 5271
5345 5337 5330 5321 5312 5305 5298 5289 5280 5273 5266 5261 5257 5254 5251 5249 5246 5244 5242 5240 5238 5238 5238 5237 5237 5237 5237 5239 5241 5244 5246 5249 5254 5257 5260 5263 5266 5269
5331 5324 5314 5306 5298 5291 5284 5277 5270 5264 5258 5253 5249 5246 5244 5242 5240 5238 5236 5235 5233 5233 5234 5236 5236 5237 5238 5239 5241 5243 5246 5248 5251 5254 5257 5260 5263 5266
5317 5308 5300 5292 5285 5279 5272 5266 5260 5254 5250 5246 5242 5239 5238 5235 5234 5233 5232 5230 5230 5230 5231 5232 5233 5234 5236 5239 5242 5243 5244 5246 5249 5252 5254 5257 5260 5264
5301 5293 5286 5279 5273 5266 5260 5255 5250 5246 5242 5239 5236 5233 5232 5231 5230 5229 5228 5227 5228 5228 5229 5230 5230 5230 5230 5231 5237 5242 5242 5244 5246 5249 5252 5254 5256 5260
5286 5279 5273 5267 5261 5255 5250 5246 5242 5239 5236 5233 5230 5228 5226 5226 5225 5225 5225 5224 5225 5226 5226 5227 5228 5228 5228 5229 5232 5237 5241 5242 5244 5246 5249 5252 5255 5260
5275 5269 5262 5256 5251 5246 5242 5238 5235 5232 5230 5227 5225 5224 5222 5221 5222 5222 5222 5224 5225 5224 5224 5225 5227 5229 5228 5228 5230 5235 5239 5241 5243 5244 5246 5248 5252 5255
5265 5259 5253 5248 5243 5238 5234 5231 5229 5227 5225 5223 5221 5220 5220 5219 5219 5220 5220 5221 5221 5222 5223 5224 5226 5226 5226 5227 5229 5231 5235 5239 5241 5244 5246 5248 5248 5251
5255 5250 5245 5240 5236 5232 5229 5227 5225 5223 5221 5220 5218 5217 5217 5218 5218 5218 5219 5219 5220 5221 5222 5223 5224 5225 5226 5227 5228 5230 5233 5236 5238 5241 5244 5247 5250 5252